Location: Engle Ridge Observatory
(44.8122°N, 85.4398°W)
Time: 20:02:51
(UTC-04:00)

Daily predictions for brighter satellites

Satellite Brightness Start Highest point End
(mag) Time Altitude Azimuth Time Altitude Azimuth Time Altitude Azimuth
Meteor 2-5 Rocket 3.8 20:16:17 10° N 20:22:01 83° E 20:27:51 10° SSE
Lacrosse 5 rocket 3.3 20:28:31 10° NNW 20:31:19 18° NNE 20:34:02 10° ENE
COSMOS 2406 3.7 20:25:46 10° NNW 20:31:29 67° WSW 20:37:08 10° SSE
Cosmos 1766 3.7 20:30:33 10° SSE 20:34:08 37° E 20:37:45 10° NNE
Cosmos 1934 Rocket 4.1 20:30:06 10° SSE 20:36:03 55° E 20:41:58 10° NNE
Tiangong 1 2.0 20:34:34 10° W 20:37:17 35° SSW 20:40:00 10° SE
Okean 3 Rocket 4.3 20:33:32 10° N 20:37:31 33° ENE 20:41:30 10° SE
Cosmos 405 3.4 20:35:18 10° SSW 20:38:48 69° W 20:42:20 10° N
RESURS DK-1 2.4 20:36:12 10° NNW 20:40:19 64° ENE 20:44:25 10° SE
Abrixas 2.7 20:41:46 10° WNW 20:44:35 55° NNE 20:46:54 14° E
Cosmos 1844 3.7 20:39:21 10° SSW 20:45:06 77° ESE 20:50:56 10° NNE
USA 186 2.1 20:50:05 17° ESE 20:51:09 23° ENE 20:53:03 10° NNE
Cosmos 1821 Rocket 4.2 20:51:25 10° S 20:57:49 82° W 21:04:13 10° N
Cosmos 1812 Rocket 3.7 20:54:35 10° S 20:59:00 82° W 21:03:26 10° N
USA 215 3.9 20:54:26 10° ENE 21:00:13 33° SE 21:05:58 10° S
Cosmos 1674 3.9 20:58:25 10° NNE 21:01:29 23° ENE 21:02:55 19° ESE
Cosmos 2344 3.6 20:54:57 10° SSW 21:02:35 77° ESE 21:11:17 10° NE
GP-B 3.9 20:58:56 10° SE 21:02:51 32° E 21:06:47 10° NNE
Spot 2 Rocket 3.5 20:58:10 10° SSE 21:03:16 90° WSW 21:08:26 10° NNW
CZ-2D R/B 3.2 20:59:38 10° SSE 21:03:29 73° ENE 21:07:22 10° N
Resurs 01 Rocket 1.8 21:01:08 10° S 21:05:33 78° WSW 21:10:00 10° NNW
Cosmos 1076 Rocket 3.8 21:04:52 10° N 21:08:58 44° ENE 21:12:27 13° SSE
Cosmos 1805 3.4 21:05:31 10° S 21:09:17 49° E 21:13:04 10° NNE
Cosmos 1766 Rocket 4.2 21:09:15 10° N 21:13:26 37° ENE 21:16:04 20° SE
Cosmos 1437 Rocket 4.2 21:10:28 10° SSW 21:14:16 42° WNW 21:18:11 10° N
Cosmos 1605 Rocket 4.0 21:09:30 10° S 21:15:45 78° E 21:22:07 10° N
ALOS 3.6 21:11:50 10° SSW 21:16:15 41° W 21:20:42 10° NNW
Cosmos 990 Rocket 4.3 21:12:02 10° SSW 21:17:16 71° WNW 21:22:32 10° NNE
Helios 1B rocket 2.5 21:16:30 10° NNE 21:20:34 54° E 21:24:36 10° S
In-Cosmos 22 4.2 21:15:36 10° NNW 21:20:58 80° W 21:26:14 10° S
Envisat 3.2 21:17:16 15° SE 21:21:14 51° ENE 21:26:10 10° N
Fregat R/B Cluster 11 4.4 21:15:28 10° SSW 21:21:19 49° SE 21:24:38 10° NE
Cosmos 1340 Rocket 3.9 21:18:10 10° NNE 21:21:37 26° ENE 21:22:08 25° E
YAOGAN 6 4.1 21:22:58 21° ENE 21:22:58 21° ENE 21:25:48 10° NNE
Cosmos 1470 3.7 21:23:17 27° E 21:23:18 27° E 21:26:42 10° NNE
CZ-4B DEB 2.7 21:22:45 33° SE 21:23:49 54° ENE 21:26:53 10° N
SAR-Lupe-4 3.5 21:20:27 11° SSE 21:23:50 89° WSW 21:27:26 10° NNW
Cosmos 1844 Rocket 4.0 21:20:05 10° SW 21:25:25 42° WNW 21:30:46 10° NNE
Cosmos 2123 Rocket 4.4 21:20:38 10° NNW 21:26:53 66° W 21:33:06 10° S
Helios 1A 2.9 21:23:52 10° SSE 21:28:01 90° NNE 21:32:14 10° NNW
Cosmos 1125 Rocket 3.6 21:23:06 10° S 21:28:07 52° ESE 21:33:11 10° NNE
Cosmos 1048 Rocket 4.0 21:25:20 10° NNW 21:30:27 63° ENE 21:33:24 25° SE
Lacrosse 4 Rocket 3.4 21:29:08 10° WSW 21:32:39 28° NW 21:36:14 10° N
Geosat 4.0 21:28:35 10° NNE 21:33:39 87° WNW 21:38:40 10° SSW
Cosmos 1833 Rocket 2.8 21:28:27 10° NNW 21:34:01 59° ENE 21:36:55 28° SE
USA 267 4.0 21:30:04 19° E 21:34:21 42° NNE 21:40:25 10° NW
Cosmos 1802 Rocket 4.4 21:31:04 20° SE 21:34:40 37° E 21:40:15 10° NNE
Cosmos-2242 3.3 21:33:22 31° SE 21:34:42 41° E 21:38:43 10° NNE
Cosmos 2278 Rocket 2.4 21:31:33 10° SSW 21:37:13 74° WNW 21:42:56 10° NNE
Cosmos 1758 3.3 21:36:04 10° S 21:40:02 83° W 21:44:04 10° N
Lacrosse 5 1.9 21:36:59 10° SW 21:42:04 78° NW 21:47:10 10° NE
Cosmos 1733 3.7 21:43:27 40° ENE 21:43:27 40° ENE 21:46:36 10° NNE
Cosmos 2061 Rocket 4.2 21:38:33 11° SSE 21:44:26 49° E 21:50:36 10° NNE
ERS-1 Rocket 3.3 21:43:28 36° ESE 21:45:00 47° ENE 21:49:51 10° N
Cosmos 1743 Rocket 4.1 21:41:08 10° N 21:45:17 38° ENE 21:45:27 38° E
Timation 2 Rocket 3.9 21:40:34 10° NNW 21:46:57 70° ENE 21:49:54 32° SE
SPOT 5 4.0 21:47:10 29° ENE 21:47:47 30° ENE 21:52:23 10° N
Cosmos 1953 2.6 21:45:31 10° SSW 21:49:34 71° W 21:53:39 10° N
Cosmos 1939 Rocket 2.8 21:48:08 39° SSE 21:49:38 80° ENE 21:53:48 10° N
Cosmos 2297 3.6 21:45:01 10° SSW 21:50:41 69° ESE 21:56:25 10° NNE
Meteor 1-29 3.0 21:47:14 10° N 21:50:42 79° WNW 21:53:40 14° SSW
Meteor 1-4 Rocket 2.8 21:47:46 10° SSW 21:51:12 64° WNW 21:54:40 10° N
Cosmos 1818 3.8 21:47:15 10° NW 21:52:41 69° WSW 21:55:28 29° SSE
COSMOS 2487 2.3 21:50:16 10° NNW 21:53:51 88° WSW 21:54:10 74° S
Cosmos 1544 4.3 21:51:49 10° SSW 21:55:18 42° WNW 21:58:49 10° N
ATLAS 5 CENTAUR R/B 3.8 21:52:42 10° S 21:53:19 14° S 21:53:19 14° S
Cosmos 2251 Rocket 4.2 21:54:00 10° N 21:58:55 37° ENE 21:59:22 36° ENE
Cosmos 1269 Rocket 4.3 21:59:22 10° NNW 22:04:37 67° WSW 22:07:14 30° S
Cosmos 2082 Rocket 2.3 21:59:50 10° NNW 22:05:33 74° WSW 22:08:04 34° S
Cosmos 1408 Rocket 4.1 22:03:51 10° NNW 22:08:15 59° W 22:10:23 29° SSW
Lacrosse 5 rocket 1.7 22:07:27 10° NW 22:10:52 50° N 22:10:52 50° N
Meteor 1-16 Rocket 4.4 22:11:54 49° E 22:11:58 49° E 22:17:40 10° NNE
CZ-3B DEB 3.1 22:03:07 10° WSW 22:12:00 51° NNW 22:15:02 20° NE
Cosmos 1459 Rocket 3.9 22:06:56 10° S 22:13:13 86° E 22:19:26 10° N
Cosmos 1271 Rocket 2.8 22:14:48 79° NW 22:14:48 79° NW 22:18:45 10° N
Terra 3.9 22:17:20 14° NE 22:17:20 14° NE 22:18:44 10° NNE
Cosmos 2173 Rocket 3.9 22:10:22 10° S 22:16:32 89° E 22:22:50 10° N
Cosmos 1356 Rocket 4.3 22:15:12 10° N 22:18:01 38° NNE 22:18:01 38° NNE
YAOGAN 11 4.3 22:23:00 66° NNE 22:23:00 66° NNE 22:27:08 10° N
ARGOS 3.3 22:29:20 57° NE 22:29:20 57° NE 22:34:16 10° N
Cosmos 1867 3.7 22:24:01 10° SW 22:29:27 75° NW 22:34:57 10° NNE
MetOp-A 3.9 22:32:12 80° SE 22:32:27 84° ENE 22:37:50 10° NNW
Cosmos 2151 4.2 22:38:41 10° N 22:41:15 35° N 22:41:15 35° N
USA 215 3.3 22:37:04 10° NE 22:43:37 79° NW 22:50:08 10° WSW
Cosmos 2016 Rocket 4.1 22:45:36 41° SSW 22:47:55 74° W 22:54:07 10° N
USA 245 4.3 22:53:18 69° N 22:53:18 69° N 22:58:36 10° N
H-2A R/B 2.8 22:55:19 45° NNE 22:55:19 45° NNE 22:59:10 10° N
Cosmos 1725 Rocket 3.8 22:54:40 87° NE 22:54:40 87° NE 23:00:48 10° N
Cosmos 494 Rocket 4.4 22:51:39 10° NNW 22:55:54 59° NW 22:55:54 59° NW
CZ-3 Stage 3 4.2 22:46:54 10° W 23:02:57 29° SSW 23:03:53 29° SSW
Tsikada Rocket 4.0 22:59:46 10° NNW 23:05:56 75° W 23:05:56 75° W
BREEZE-M DEB (TANK) 4.1 23:01:26 10° WSW 23:06:15 81° SSE 23:27:25 10° ENE
MOS 1-B Rocket 4.4 23:14:36 78° S 23:15:12 89° WSW 23:22:22 10° NNW
USA 267 3.2 23:17:25 79° W 23:17:25 79° W 23:23:36 10° NW
SPOT 5 4.2 23:26:24 39° WNW 23:26:24 39° WNW 23:30:43 10° NNW
Lacrosse 5 3.7 23:21:27 10° WNW 23:25:44 27° NNW 23:26:34 25° N
Terra 4.1 23:56:13 21° NNW 23:56:13 21° NNW 23:57:48 10° NNW
